Location: Newark
(15.5800°N, 32.5200°E)
Time: 01:42:10
(UTC+00:00)

ISS - Visible Passes

Search period start: 14 November 2019 00:00
Search period end: 24 November 2019 00:00
Orbit: 412 x 421 km, 51.6° (Epoch: 14 November)

Date Brightness Start Highest point End Pass type
(mag) Time Alt. Az. Time Alt. Az. Time Alt. Az.
15 Nov -3.1 03:17:45 10° NNW 03:21:02 54° NE 03:24:18 10° SE visible
15 Nov -2.6 16:37:01 10° SSW 16:39:19 32° SSE 16:39:19 32° SSE visible
16 Nov -1.7 02:31:02 17° N 02:32:38 24° NE 02:35:24 10° ESE visible
16 Nov -1.9 15:49:35 10° SSE 15:51:51 17° SE 15:53:37 12° E visible
16 Nov -0.4 17:26:04 10° W 17:26:35 12° W 17:26:35 12° W visible
17 Nov -0.4 01:45:19 10° ENE 01:45:19 10° ENE 01:45:30 10° ENE visible
17 Nov -2.6 03:18:16 12° WNW 03:20:51 27° SW 03:23:44 10° S visible
17 Nov -2.5 16:36:52 10° WSW 16:39:59 37° NW 16:40:50 31° NNW visible
18 Nov -3.8 02:32:34 67° SW 02:32:34 67° SW 02:35:50 10° SSE visible
18 Nov -3.8 15:48:16 10° SW 15:51:35 87° SE 15:54:55 10° NE visible
19 Nov -0.6 01:46:50 14° SE 01:46:50 14° SE 01:47:22 10° SE visible
20 Nov -1.4 15:48:57 10° W 15:51:26 19° NW 15:53:56 10° N visible
